Location: Atherton
(17.2661°S, 145.4859°E)
Time: 17:47:38
(UTC+10:00)

ACS3 Solar Sail - Pass Details

Date: 23 May 2025
Orbit: 920 x 1019 km, 97.5° (Epoch: 20 June)

Event Time Altitude Azimuth Distance (km) Brightness Sun altitude
Rises 05:21:03 0° 15° (NNE) 3,543 5.2 -18.2°
Reaches altitude 10° 05:23:26 10° 17° (NNE) 2,610 4.5 -17.6°
Maximum altitude 05:29:16 77° 102° (ESE) 958 1.8 -16.3°
Drops below altitude 10° 05:35:15 10° 187° (S) 2,678 3.9 -14.9°
Sets 05:37:44 0° 188° (S) 3,642 4.5 -14.4°
